Torna al catalogo

COSMOS 839 DEB

AttivoLEO
NORAD 10615·DEBRIS·🇷🇺 Russia

Lanciato Jul 8, 1976 da Plesetsk Cosmodrome

Loading…

Prossimi Passaggi (prossime 24 ore)

TLE

AggiornatoSource: Space-Track

Epoca: Sep 14, 2026, 07:55 UTC

1 10615U 76067AP  26257.33040037  .00000493  00000-0  13514-2 0  9993
2 10615  65.9979 224.5548 0663301 310.7073 206.8782 12.60696067569703

Traccia COSMOS 839 DEB in tempo reale con AllMySat

Download on the App Store